Location: Dompnac
(44.5644°N, 4.1026°E)
Time: 13:54:59
(UTC+00:00)

Cosmos 1891 Rocket - Pass Details

Date: 22 January 2021
Orbit: 934 x 1018 km, 82.9° (Epoch: 05 March)

Event Time Altitude Azimuth Distance (km) Brightness Sun altitude
Rises 03:39:17 0° 152° (SSE) 3,662 7.7 -37.6°
Reaches altitude 10° 03:42:09 10° 141° (SE) 2,705 7.1 -37.1°
Maximum altitude 03:47:15 28° 85° (E) 1,718 6.2 -36.2°
Drops below altitude 10° 03:52:18 10° 29° (NNE) 2,677 7.1 -35.3°
Sets 03:55:06 0° 19° (NNE) 3,617 7.8 -34.9°
